STARLINK-1494, 45760

Orbit data source: Space-Track

STARLINK-1494, 45760 is a payload satellite owned by SpaceX/Seattle (US) in LEO that was launched on Sat, 13 Jun 2020 UTC via an FALCON 9 launch vehicle from the Air Force Eastern Test Range (AFETR). Payload-class satellites include a variety of spacecraft equipped with specific instruments for various scientific and technological missions. These include communications satellites like Starlink; space stations such as the ISS; scientific satellites like the Hubble; Earth observation satellites from companies like Planet Labs, Umbra, and HawkEye 360; GPS; miniature CubeSats for education and research; and military/defense satellites.

Loading next visibility...
Identifier
45760, 2020-038AG
Orbit
LEO
Country
Flag of USUS
Related business
Manufacturer
SpaceX/Seattle
Mission
Partially operational Commercial Communications
Bus & Motor
STARLINK, Unknown motor
Mass
260 kg wet, ~248 kg dry
Launch date (UTC)
2020-06-13 (5 years ago)
Launch vehicle
FALCON 9
Launch site
Air Force Eastern Test Range (AFETR)
Object type
Payload
Rocket body
Debris
Shape & HBR
Box + 1 Pan, 4.4 m
Radar Cross Section
13.562 m², Large (>1 m²)

Expand to show TLE details & history
Last TLE update: 14 hours ago

TLE from 14 hours ago
0 STARLINK-1494
1 45760U 20038AG  25260.25009259  .00038800  00000-0  12810-2 0  9995
2 45760  53.0541 272.3448 0001525  70.0397  97.5014 15.31052353  5763
Epoch: 2025-09-17T06:00Z
TLE epoch observation values (Epoch: 2025-09-17T06:00:07.999Z)
Latitude
9.89684°
Longitude
-1.61514°
Altitude
472.952 km
Speed
7.631 km/s
True Right ascension
05h 39m 23s
True Declination
9° 50' 11"
Sunlit
Object was in daylight at epoch
Visualization orbit readout
Latitude
Unknown
Longitude
Unknown
Altitude
Unknown
Speed
Unknown
Apparent Right ascension
Unknown
Apparent Declination
Unknown
Sunlit
N/A
Visualization observer readout
Local Sidereal Time
12:44:07
Azimuth
Unknown
Elevation
Unknown
Doppler factor
Unknown
Orbital elements
Apogee altitude
473.99 km
Perigee altitude
471.9 km
Semi-major axis
6,851.082 km
Eccentricity
0.00015
Inclination
53.0541°
RAAN
272.3448°
Arg. of periapsis
70.0397°
True anomaly
97.51873°
Mean anomaly
97.5014°
Eccentric anomaly
97.51006°
Mean motion
3.82741 °/min
Orbital period
94.06 mins
BSTAR
0.001281
Loading maneuver chart data...
Computing Atmospheric mass density...

Documentation

Showing up to 5 results
|